Home   Weather   Riffa   Past weeks

Flag for Bahrain Past Weather in Riffa, Bahrain — Yesterday and Last 2 Weeks

Now
84 °F

Passing clouds.


Feels Like: 86 °F
Forecast: 83 / 95 °F
Wind: 6 mph from Northwest

Location: Bahrain International Airport

Current Time: Apr 30, 2017 at 4:25:55 am

Latest Report: Apr 30, 2017 at 4:00 am


Visibility: N/A

Pressure: 29.77 "Hg

Humidity: 51%

Dew Point: 64 °F

Location of RiffaLocation

Past Weather in Riffa — Graph

°F

Riffa Temperature Yesterday

Maximum temperature yesterday: 93 °F (at 9:00 am)
Minimum temperature yesterday: 84 °F (at 5:30 am)
Average temperature yesterday: 88 °F

High & Low Weather Summary for the Past Weeks

 TemperatureHumidityPressure
High102 °F (Apr 15, 11:00 am)79% (Apr 19, 5:30 am)30.07 "Hg (Apr 19, 5:30 am)
Low73 °F (Apr 23, 5:30 am)12% (Apr 15, 11:30 am)29.71 "Hg (Apr 15, 3:00 am)
Average83 °F50%29.81 "Hg
* Reported Apr 15 3:00 am — Apr 30 3:30 am, Riffa, Weather by CustomWeather, © 2017

Note: Actual official high and low records may vary slightly from our data, if they occured in-between our weather recording intervals... More about our weather records

Advertising

Riffa Weather History for the Previous 24 Hours

Scroll right to see more
 ConditionsComfort  
Time TempWeatherWind HumidityBarometerVisibility
3:30 am
Sun, Apr 30
84 °FClear.6 mph55%29.77 "Hg10 mi
3:00 am84 °FClear.6 mph55%29.77 "Hg10 mi
2:30 am86 °FPassing clouds.7 mph49%29.77 "HgN/A
2:00 am88 °FClear.12 mph38%29.77 "Hg10 mi
1:30 am84 °FClear.15 mph33%29.77 "Hg10 mi
1:00 am84 °FClear.2 mph33%29.74 "Hg10 mi
12:30 am88 °FClear.3 mph29%29.77 "Hg10 mi
12:00 am84 °FClear.1 mph40%29.77 "Hg10 mi
11:30 pm
Sat, Apr 29
90 °FClear.3 mph26%29.77 "Hg10 mi
10:30 pm90 °FClear.5 mph24%29.77 "Hg10 mi
10:00 pm91 °FClear.6 mph24%29.77 "Hg10 mi
9:00 pm86 °FClear.7 mph55%29.77 "Hg6 mi
8:30 pm86 °FClear.7 mph59%29.77 "Hg6 mi
8:00 pm86 °FClear.7 mph55%29.77 "Hg6 mi
7:30 pm88 °FClear.7 mph46%29.77 "Hg6 mi
7:00 pm88 °FClear.6 mph46%29.77 "Hg6 mi
6:30 pm88 °FClear.8 mph49%29.77 "Hg6 mi
6:00 pm88 °FSunny.9 mph49%29.77 "Hg10 mi
5:30 pm88 °FSunny.8 mph49%29.77 "Hg10 mi
5:00 pm88 °FSunny.10 mph52%29.77 "Hg10 mi
4:30 pm90 °FSunny.12 mph52%29.77 "Hg10 mi
3:30 pm90 °FClear.13 mph46%29.77 "Hg6 mi
3:00 pm90 °FClear.14 mph46%29.77 "Hg6 mi
2:30 pm91 °FSunny.15 mph44%29.77 "Hg10 mi
1:30 pm90 °FClear.16 mph52%29.80 "Hg6 mi
1:00 pm90 °FSunny.14 mph52%29.80 "Hg10 mi
12:30 pm90 °FSunny.13 mph55%29.83 "Hg10 mi
11:30 am91 °FSunny.9 mph41%29.83 "Hg10 mi
10:40 am91 °FSunny.8 mph41%29.83 "Hg10 mi
10:00 am90 °FSunny.8 mph46%29.83 "Hg10 mi
9:30 am90 °FSunny.9 mph46%29.83 "Hg10 mi
9:00 am93 °FPassing clouds.5 mph26%29.83 "HgN/A
8:30 am91 °FSunny.5 mph28%29.83 "Hg10 mi
8:00 am90 °FSunny.8 mph33%29.83 "Hg10 mi
7:30 am90 °FSunny.7 mph38%29.83 "Hg10 mi
7:00 am86 °FSunny.8 mph46%29.83 "Hg10 mi
6:30 am84 °FSunny.10 mph55%29.83 "Hg10 mi
5:30 am84 °FSunny.13 mph62%29.80 "Hg10 mi
5:00 am86 °FClear.1 mph43%29.77 "Hg10 mi
4:30 am86 °FClear.2 mph52%29.77 "Hg10 mi
4:00 am88 °FClear.2 mph46%29.74 "Hg10 mi
Weather by CustomWeather, © 2017

See weather overviewHow to use our weather pages